Year,Month,Day,Hour,Minute,Value (Times are PST for temperature in C)
2008,08,15,00,00,18.90
2008,08,15,00,01,18.90
2008,08,15,00,02,18.90
2008,08,15,00,03,18.90
2008,08,15,00,04,18.90
2008,08,15,00,05,18.90
2008,08,15,00,06,19.00
2008,08,15,00,07,19.10
2008,08,15,00,08,19.10
2008,08,15,00,09,19.10
2008,08,15,00,10,19.10
2008,08,15,00,11,19.10
2008,08,15,00,12,19.10
2008,08,15,00,13,19.10
2008,08,15,00,14,19.10
2008,08,15,00,15,19.00
2008,08,15,00,16,18.90
2008,08,15,00,17,18.90
2008,08,15,00,18,18.90
2008,08,15,00,19,18.90
2008,08,15,00,20,18.90
2008,08,15,00,21,18.90
2008,08,15,00,22,18.80
2008,08,15,00,23,18.80
2008,08,15,00,24,18.80
2008,08,15,00,25,18.80
2008,08,15,00,26,18.80
2008,08,15,00,27,18.70
2008,08,15,00,28,18.70
2008,08,15,00,29,18.70
2008,08,15,00,30,18.70
2008,08,15,00,31,18.60
2008,08,15,00,32,18.60
2008,08,15,00,33,18.60
2008,08,15,00,34,18.60
2008,08,15,00,35,18.60
2008,08,15,00,36,18.60
2008,08,15,00,37,18.60
2008,08,15,00,38,18.50
2008,08,15,00,39,18.50
2008,08,15,00,40,18.50
2008,08,15,00,41,18.50
2008,08,15,00,42,18.40
2008,08,15,00,43,18.40
2008,08,15,00,44,18.40
2008,08,15,00,45,18.40
2008,08,15,00,46,18.30
2008,08,15,00,47,18.30
2008,08,15,00,48,18.30
2008,08,15,00,49,18.30
2008,08,15,00,50,18.30
2008,08,15,00,51,18.30
2008,08,15,00,52,18.30
2008,08,15,00,53,18.20
2008,08,15,00,54,18.20
2008,08,15,00,55,18.20
2008,08,15,00,56,18.20
2008,08,15,00,57,18.20
2008,08,15,00,58,18.20
2008,08,15,00,59,18.20
2008,08,15,01,00,18.20
2008,08,15,01,01,18.20
2008,08,15,01,02,18.20
2008,08,15,01,03,18.20
2008,08,15,01,04,18.20
2008,08,15,01,05,18.20
2008,08,15,01,06,18.20
2008,08,15,01,07,18.20
2008,08,15,01,08,18.20
2008,08,15,01,09,18.20
2008,08,15,01,10,18.20
2008,08,15,01,11,18.20
2008,08,15,01,12,18.20
2008,08,15,01,13,18.20
2008,08,15,01,14,18.20
2008,08,15,01,15,18.10
2008,08,15,01,16,18.10
2008,08,15,01,17,18.10
2008,08,15,01,18,18.10
2008,08,15,01,19,18.10
2008,08,15,01,20,18.10
2008,08,15,01,21,18.10
2008,08,15,01,22,18.10
2008,08,15,01,23,18.10
2008,08,15,01,24,18.10
2008,08,15,01,25,18.10
2008,08,15,01,26,18.10
2008,08,15,01,27,18.10
2008,08,15,01,28,18.10
2008,08,15,01,29,18.10
2008,08,15,01,30,18.10
2008,08,15,01,31,18.10
2008,08,15,01,32,18.10
2008,08,15,01,33,18.10
2008,08,15,01,34,18.10
2008,08,15,01,35,18.10
2008,08,15,01,36,18.10
2008,08,15,01,37,18.10
2008,08,15,01,38,18.00
2008,08,15,01,39,18.00
2008,08,15,01,40,18.00
2008,08,15,01,41,17.90
2008,08,15,01,42,17.90
2008,08,15,01,43,17.90
2008,08,15,01,44,17.90
2008,08,15,01,45,17.90
2008,08,15,01,46,17.90
2008,08,15,01,47,17.90
2008,08,15,01,48,17.90
2008,08,15,01,49,17.90
2008,08,15,01,50,17.90
2008,08,15,01,51,17.90
2008,08,15,01,52,17.90
2008,08,15,01,53,17.90
2008,08,15,01,54,17.90
2008,08,15,01,55,17.90
2008,08,15,01,56,17.90
2008,08,15,01,57,17.80
2008,08,15,01,58,17.80
2008,08,15,01,59,17.80
2008,08,15,02,00,17.80
2008,08,15,02,01,17.80
2008,08,15,02,02,17.80
2008,08,15,02,03,17.80
2008,08,15,02,04,17.70
2008,08,15,02,05,17.70
2008,08,15,02,06,17.70
2008,08,15,02,07,17.70
2008,08,15,02,08,17.70
2008,08,15,02,09,17.70
2008,08,15,02,10,17.70
2008,08,15,02,11,17.70
2008,08,15,02,12,17.60
2008,08,15,02,13,17.60
2008,08,15,02,14,17.60
2008,08,15,02,15,17.60
2008,08,15,02,16,17.50
2008,08,15,02,17,17.50
2008,08,15,02,18,17.40
2008,08,15,02,19,17.40
2008,08,15,02,20,17.40
2008,08,15,02,21,17.30
2008,08,15,02,22,17.30
2008,08,15,02,23,17.30
2008,08,15,02,24,17.30
2008,08,15,02,25,17.30
2008,08,15,02,26,17.30
2008,08,15,02,27,17.30
2008,08,15,02,28,17.30
2008,08,15,02,29,17.30
2008,08,15,02,30,17.30
2008,08,15,02,31,17.30
2008,08,15,02,32,17.30
2008,08,15,02,33,17.30
2008,08,15,02,34,17.30
2008,08,15,02,35,17.30
2008,08,15,02,36,17.30
2008,08,15,02,37,17.30
2008,08,15,02,38,17.30
2008,08,15,02,39,17.30
2008,08,15,02,40,17.30
2008,08,15,02,41,17.30
2008,08,15,02,42,17.30
2008,08,15,02,43,17.30
2008,08,15,02,44,17.30
2008,08,15,02,45,17.30
2008,08,15,02,46,17.30
2008,08,15,02,47,17.30
2008,08,15,02,48,17.30
2008,08,15,02,49,17.30
2008,08,15,02,50,17.30
2008,08,15,02,51,17.30
2008,08,15,02,52,17.30
2008,08,15,02,53,17.20
2008,08,15,02,54,17.20
2008,08,15,02,55,17.20
2008,08,15,02,56,17.20
2008,08,15,02,57,17.20
2008,08,15,02,58,17.10
2008,08,15,02,59,17.10
2008,08,15,03,00,17.10
2008,08,15,03,01,17.10
2008,08,15,03,02,17.00
2008,08,15,03,03,17.00
2008,08,15,03,04,17.00
2008,08,15,03,05,17.00
2008,08,15,03,06,17.00
2008,08,15,03,07,17.00
2008,08,15,03,08,17.00
2008,08,15,03,09,17.00
2008,08,15,03,10,17.00
2008,08,15,03,11,17.00
2008,08,15,03,12,17.00
2008,08,15,03,13,16.90
2008,08,15,03,14,16.90
2008,08,15,03,15,16.90
2008,08,15,03,16,16.90
2008,08,15,03,17,16.90
2008,08,15,03,18,16.80
2008,08,15,03,19,16.80
2008,08,15,03,20,16.80
2008,08,15,03,21,16.80
2008,08,15,03,22,16.80
2008,08,15,03,23,16.80
2008,08,15,03,24,16.70
2008,08,15,03,25,16.70
2008,08,15,03,26,16.70
2008,08,15,03,27,16.70
2008,08,15,03,28,16.70
2008,08,15,03,29,16.70
2008,08,15,03,30,16.70
2008,08,15,03,31,16.70
2008,08,15,03,32,16.70
2008,08,15,03,33,16.70
2008,08,15,03,34,16.70
2008,08,15,03,35,16.70
2008,08,15,03,36,16.70
2008,08,15,03,37,16.70
2008,08,15,03,38,16.70
2008,08,15,03,39,16.70
2008,08,15,03,40,16.70
2008,08,15,03,41,16.70
2008,08,15,03,42,16.70
2008,08,15,03,43,16.70
2008,08,15,03,44,16.70
2008,08,15,03,45,16.70
2008,08,15,03,46,16.70
2008,08,15,03,47,16.70
2008,08,15,03,48,16.60
2008,08,15,03,49,16.60
2008,08,15,03,50,16.60
2008,08,15,03,51,16.60
2008,08,15,03,52,16.60
2008,08,15,03,53,16.60
2008,08,15,03,54,16.60
2008,08,15,03,55,16.60
2008,08,15,03,56,16.60
2008,08,15,03,57,16.60
2008,08,15,03,58,16.50
2008,08,15,03,59,16.40
2008,08,15,04,00,16.40
2008,08,15,04,01,16.40
2008,08,15,04,02,16.40
2008,08,15,04,03,16.40
2008,08,15,04,04,16.40
2008,08,15,04,05,16.40
2008,08,15,04,06,16.40
2008,08,15,04,07,16.40
2008,08,15,04,08,16.40
2008,08,15,04,09,16.40
2008,08,15,04,10,16.40
2008,08,15,04,11,16.40
2008,08,15,04,12,16.40
2008,08,15,04,13,16.40
2008,08,15,04,14,16.40
2008,08,15,04,15,16.40
2008,08,15,04,16,16.40
2008,08,15,04,17,16.40
2008,08,15,04,18,16.40
2008,08,15,04,19,16.40
2008,08,15,04,20,16.40
2008,08,15,04,21,16.40
2008,08,15,04,22,16.30
2008,08,15,04,23,16.30
2008,08,15,04,24,16.30
2008,08,15,04,25,16.30
2008,08,15,04,26,16.30
2008,08,15,04,27,16.30
2008,08,15,04,28,16.30
2008,08,15,04,29,16.30
2008,08,15,04,30,16.30
2008,08,15,04,31,16.30
2008,08,15,04,32,16.30
2008,08,15,04,33,16.30
2008,08,15,04,34,16.20
2008,08,15,04,35,16.20
2008,08,15,04,36,16.20
2008,08,15,04,37,16.20
2008,08,15,04,38,16.20
2008,08,15,04,39,16.20
2008,08,15,04,40,16.20
2008,08,15,04,41,16.20
2008,08,15,04,42,16.20
2008,08,15,04,43,16.20
2008,08,15,04,44,16.20
2008,08,15,04,45,16.10
2008,08,15,04,46,16.10
2008,08,15,04,47,16.10
2008,08,15,04,48,16.10
2008,08,15,04,49,16.10
2008,08,15,04,50,16.10
2008,08,15,04,51,16.10
2008,08,15,04,52,16.10
2008,08,15,04,53,16.10
2008,08,15,04,54,16.10
2008,08,15,04,55,16.10
2008,08,15,04,56,16.10
2008,08,15,04,57,16.10
2008,08,15,04,58,16.10
2008,08,15,04,59,16.10
2008,08,15,05,00,16.10
2008,08,15,05,01,16.00
2008,08,15,05,02,15.90
2008,08,15,05,03,15.90
2008,08,15,05,04,15.90
2008,08,15,05,05,15.90
2008,08,15,05,06,15.90
2008,08,15,05,07,15.90
2008,08,15,05,08,15.90
2008,08,15,05,09,15.90
2008,08,15,05,10,15.90
2008,08,15,05,11,15.90
2008,08,15,05,12,15.90
2008,08,15,05,13,15.90
2008,08,15,05,14,15.90
2008,08,15,05,15,15.90
2008,08,15,05,16,15.80
2008,08,15,05,17,15.80
2008,08,15,05,18,15.80
2008,08,15,05,19,15.80
2008,08,15,05,20,15.80
2008,08,15,05,21,15.90
2008,08,15,05,22,15.90
2008,08,15,05,23,15.80
2008,08,15,05,24,15.80
2008,08,15,05,25,15.80
2008,08,15,05,26,15.80
2008,08,15,05,27,15.80
2008,08,15,05,28,15.80
2008,08,15,05,29,15.80
2008,08,15,05,30,15.80
2008,08,15,05,31,15.80
2008,08,15,05,32,15.80
2008,08,15,05,33,15.80
2008,08,15,05,34,15.80
2008,08,15,05,35,15.80
2008,08,15,05,36,15.80
2008,08,15,05,37,15.80
2008,08,15,05,38,15.80
2008,08,15,05,39,15.80
2008,08,15,05,40,15.80
2008,08,15,05,41,15.80
2008,08,15,05,42,15.80
2008,08,15,05,43,15.80
2008,08,15,05,44,15.80
2008,08,15,05,45,15.80
2008,08,15,05,46,15.80
2008,08,15,05,47,15.80
2008,08,15,05,48,15.80
2008,08,15,05,49,15.80
2008,08,15,05,50,15.80
2008,08,15,05,51,15.80
2008,08,15,05,52,15.80
2008,08,15,05,53,15.80
2008,08,15,05,54,15.80
2008,08,15,05,55,15.80
2008,08,15,05,56,15.80
2008,08,15,05,57,15.80
2008,08,15,05,58,15.80
2008,08,15,05,59,15.80
2008,08,15,06,00,15.80
2008,08,15,06,01,15.80
2008,08,15,06,02,15.80
2008,08,15,06,03,15.80
2008,08,15,06,04,15.80
2008,08,15,06,05,15.80
2008,08,15,06,06,15.80
2008,08,15,06,07,15.80
2008,08,15,06,08,15.80
2008,08,15,06,09,15.80
2008,08,15,06,10,15.80
2008,08,15,06,11,15.80
2008,08,15,06,12,15.80
2008,08,15,06,13,15.80
2008,08,15,06,14,15.80
2008,08,15,06,15,15.80
2008,08,15,06,16,15.80
2008,08,15,06,17,15.80
2008,08,15,06,18,15.90
2008,08,15,06,19,15.90
2008,08,15,06,20,15.90
2008,08,15,06,21,16.10
2008,08,15,06,22,16.10
2008,08,15,06,23,16.10
2008,08,15,06,24,16.10
2008,08,15,06,25,16.10
2008,08,15,06,26,16.10
2008,08,15,06,27,16.10
2008,08,15,06,28,16.10
2008,08,15,06,29,16.10
2008,08,15,06,30,16.10
2008,08,15,06,31,16.10
2008,08,15,06,32,16.10
2008,08,15,06,33,16.10
2008,08,15,06,34,16.10
2008,08,15,06,35,16.10
2008,08,15,06,36,16.10
2008,08,15,06,37,16.10
2008,08,15,06,38,16.10
2008,08,15,06,39,16.10
2008,08,15,06,40,16.10
2008,08,15,06,41,16.10
2008,08,15,06,42,16.10
2008,08,15,06,43,16.10
2008,08,15,06,44,16.10
2008,08,15,06,45,16.10
2008,08,15,06,46,16.20
2008,08,15,06,47,16.20
2008,08,15,06,48,16.20
2008,08,15,06,49,16.20
2008,08,15,06,50,16.20
2008,08,15,06,51,16.30
2008,08,15,06,52,16.30
2008,08,15,06,53,16.30
2008,08,15,06,54,16.30
2008,08,15,06,55,16.30
2008,08,15,06,56,16.40
2008,08,15,06,57,16.40
2008,08,15,06,58,16.40
2008,08,15,06,59,16.40
2008,08,15,07,00,16.40
2008,08,15,07,01,16.40
2008,08,15,07,02,16.40
2008,08,15,07,03,16.40
2008,08,15,07,04,16.40
2008,08,15,07,05,16.40
2008,08,15,07,06,16.40
2008,08,15,07,07,16.40
2008,08,15,07,08,16.40
2008,08,15,07,09,16.40
2008,08,15,07,10,16.60
2008,08,15,07,11,16.60
2008,08,15,07,12,16.60
2008,08,15,07,13,16.60
2008,08,15,07,14,16.60
2008,08,15,07,15,16.70
2008,08,15,07,16,16.70
2008,08,15,07,17,16.70
2008,08,15,07,18,16.70
2008,08,15,07,19,16.70
2008,08,15,07,20,16.80
2008,08,15,07,21,16.80
2008,08,15,07,22,16.90
2008,08,15,07,23,16.90
2008,08,15,07,24,17.00
2008,08,15,07,25,17.00
2008,08,15,07,26,17.00
2008,08,15,07,27,17.10
2008,08,15,07,28,17.10
2008,08,15,07,29,17.10
2008,08,15,07,30,17.20
2008,08,15,07,31,17.20
2008,08,15,07,32,17.20
2008,08,15,07,33,17.30
2008,08,15,07,34,17.30
2008,08,15,07,35,17.30
2008,08,15,07,36,17.30
2008,08,15,07,37,17.30
2008,08,15,07,38,17.30
2008,08,15,07,39,17.30
2008,08,15,07,40,17.40
2008,08,15,07,41,17.40
2008,08,15,07,42,17.40
2008,08,15,07,43,17.40
2008,08,15,07,44,17.50
2008,08,15,07,45,17.50
2008,08,15,07,46,17.50
2008,08,15,07,47,17.50
2008,08,15,07,48,17.60
2008,08,15,07,49,17.60
2008,08,15,07,50,17.60
2008,08,15,07,51,17.60
2008,08,15,07,52,17.70
2008,08,15,07,53,17.70
2008,08,15,07,54,17.70
2008,08,15,07,55,17.80
2008,08,15,07,56,17.90
2008,08,15,07,57,17.90
2008,08,15,07,58,17.90
2008,08,15,07,59,17.90
2008,08,15,08,00,18.00
2008,08,15,08,01,18.10
2008,08,15,08,02,18.20
2008,08,15,08,03,18.20
2008,08,15,08,04,18.20
2008,08,15,08,05,18.20
2008,08,15,08,06,18.20
2008,08,15,08,07,18.30
2008,08,15,08,08,18.30
2008,08,15,08,09,18.40
2008,08,15,08,10,18.40
2008,08,15,08,11,18.50
2008,08,15,08,12,18.50
2008,08,15,08,13,18.60
2008,08,15,08,14,18.70
2008,08,15,08,15,18.70
2008,08,15,08,16,18.80
2008,08,15,08,17,18.90
2008,08,15,08,18,19.00
2008,08,15,08,19,19.10
2008,08,15,08,20,19.10
2008,08,15,08,21,19.20
2008,08,15,08,22,19.30
2008,08,15,08,23,19.40
2008,08,15,08,24,19.50
2008,08,15,08,25,19.50
2008,08,15,08,26,19.60
2008,08,15,08,27,19.60
2008,08,15,08,28,19.70
2008,08,15,08,29,19.90
2008,08,15,08,30,19.90
2008,08,15,08,31,20.10
2008,08,15,08,32,20.20
2008,08,15,08,33,20.20
2008,08,15,08,34,20.30
2008,08,15,08,35,20.30
2008,08,15,08,36,20.40
2008,08,15,08,37,20.50
2008,08,15,08,38,20.60
2008,08,15,08,39,20.70
2008,08,15,08,40,20.80
2008,08,15,08,41,20.90
2008,08,15,08,42,21.00
2008,08,15,08,43,21.00
2008,08,15,08,44,21.10
2008,08,15,08,45,21.20
2008,08,15,08,46,21.20
2008,08,15,08,47,21.30
2008,08,15,08,48,21.30
2008,08,15,08,49,21.40
2008,08,15,08,50,21.50
2008,08,15,08,51,21.60
2008,08,15,08,52,21.70
2008,08,15,08,53,21.80
2008,08,15,08,54,21.90
2008,08,15,08,55,21.90
2008,08,15,08,56,22.00
2008,08,15,08,57,22.00
2008,08,15,08,58,22.10
2008,08,15,08,59,22.10
2008,08,15,09,00,22.20
2008,08,15,09,01,22.20
2008,08,15,09,02,22.30
2008,08,15,09,03,22.30
2008,08,15,09,04,22.40
2008,08,15,09,05,22.40
2008,08,15,09,06,22.50
2008,08,15,09,07,22.50
2008,08,15,09,08,22.60
2008,08,15,09,09,22.70
2008,08,15,09,10,22.70
2008,08,15,09,11,22.80
2008,08,15,09,12,22.80
2008,08,15,09,13,22.80
2008,08,15,09,14,22.90
2008,08,15,09,15,22.90
2008,08,15,09,16,22.90
2008,08,15,09,17,23.10
2008,08,15,09,18,23.20
2008,08,15,09,19,23.20
2008,08,15,09,20,23.30
2008,08,15,09,21,23.30
2008,08,15,09,22,23.30
2008,08,15,09,23,23.40
2008,08,15,09,24,23.40
2008,08,15,09,25,23.50
2008,08,15,09,26,23.60
2008,08,15,09,27,23.60
2008,08,15,09,28,23.60
2008,08,15,09,29,23.60
2008,08,15,09,30,23.70
2008,08,15,09,31,23.70
2008,08,15,09,32,23.70
2008,08,15,09,33,23.70
2008,08,15,09,34,23.70
2008,08,15,09,35,23.70
2008,08,15,09,36,23.70
2008,08,15,09,37,23.80
2008,08,15,09,38,23.80
2008,08,15,09,39,23.90
2008,08,15,09,40,24.00
2008,08,15,09,41,24.10
2008,08,15,09,42,24.10
2008,08,15,09,43,24.10
2008,08,15,09,44,24.10
2008,08,15,09,45,24.10
2008,08,15,09,46,24.10
2008,08,15,09,47,24.10
2008,08,15,09,48,24.20
2008,08,15,09,49,24.20
2008,08,15,09,50,24.30
2008,08,15,09,51,24.30
2008,08,15,09,52,24.30
2008,08,15,09,53,24.30
2008,08,15,09,54,24.30
2008,08,15,09,55,24.30
2008,08,15,09,56,24.30
2008,08,15,09,57,24.20
2008,08,15,09,58,24.20
2008,08,15,09,59,24.30
2008,08,15,10,00,24.30
2008,08,15,10,01,24.30
2008,08,15,10,02,24.30
2008,08,15,10,03,24.40
2008,08,15,10,04,24.40
2008,08,15,10,05,24.40
2008,08,15,10,06,24.50
2008,08,15,10,07,24.50
2008,08,15,10,08,24.60
2008,08,15,10,09,24.70
2008,08,15,10,10,24.80
2008,08,15,10,11,24.80
2008,08,15,10,12,24.90
2008,08,15,10,13,24.90
2008,08,15,10,14,25.00
2008,08,15,10,15,25.10
2008,08,15,10,16,25.10
2008,08,15,10,17,25.10
2008,08,15,10,18,25.10
2008,08,15,10,19,25.20
2008,08,15,10,20,25.20
2008,08,15,10,21,25.20
2008,08,15,10,22,25.20
2008,08,15,10,23,25.20
2008,08,15,10,24,25.20
2008,08,15,10,25,25.20
2008,08,15,10,26,25.10
2008,08,15,10,27,25.10
2008,08,15,10,28,25.10
2008,08,15,10,29,25.20
2008,08,15,10,30,25.20
2008,08,15,10,31,25.20
2008,08,15,10,32,25.20
2008,08,15,10,33,25.20
2008,08,15,10,34,25.20
2008,08,15,10,35,25.20
2008,08,15,10,36,25.30
2008,08,15,10,37,25.30
2008,08,15,10,38,25.30
2008,08,15,10,39,25.30
2008,08,15,10,40,25.30
2008,08,15,10,41,25.30
2008,08,15,10,42,25.30
2008,08,15,10,43,25.40
2008,08,15,10,44,25.40
2008,08,15,10,45,25.50
2008,08,15,10,46,25.60
2008,08,15,10,47,25.70
2008,08,15,10,48,25.70
2008,08,15,10,49,25.80
2008,08,15,10,50,25.90
2008,08,15,10,51,25.90
2008,08,15,10,52,26.00
2008,08,15,10,53,26.00
2008,08,15,10,54,26.10
2008,08,15,10,55,26.10
2008,08,15,10,56,26.20
2008,08,15,10,57,26.20
2008,08,15,10,58,26.10
2008,08,15,10,59,26.10
2008,08,15,11,00,26.20
2008,08,15,11,01,26.20
2008,08,15,11,02,26.20
2008,08,15,11,03,26.10
2008,08,15,11,04,26.10
2008,08,15,11,05,26.10
2008,08,15,11,06,26.10
2008,08,15,11,07,26.00
2008,08,15,11,08,25.90
2008,08,15,11,09,25.70
2008,08,15,11,10,25.60
2008,08,15,11,11,25.60
2008,08,15,11,12,25.50
2008,08,15,11,13,25.50
2008,08,15,11,14,25.50
2008,08,15,11,15,25.50
2008,08,15,11,16,25.50
2008,08,15,11,17,25.50
2008,08,15,11,18,25.50
2008,08,15,11,19,25.50
2008,08,15,11,20,25.60
2008,08,15,11,21,25.60
2008,08,15,11,22,25.60
2008,08,15,11,23,25.60
2008,08,15,11,24,25.60
2008,08,15,11,25,25.70
2008,08,15,11,26,25.70
2008,08,15,11,27,25.80
2008,08,15,11,28,25.90
2008,08,15,11,29,25.90
2008,08,15,11,30,25.90
2008,08,15,11,31,25.90
2008,08,15,11,32,25.90
2008,08,15,11,33,25.90
2008,08,15,11,34,25.90
2008,08,15,11,35,26.10
2008,08,15,11,36,26.10
2008,08,15,11,37,26.20
2008,08,15,11,38,26.20
2008,08,15,11,39,26.30
2008,08,15,11,40,26.30
2008,08,15,11,41,26.40
2008,08,15,11,42,26.50
2008,08,15,11,43,26.60
2008,08,15,11,44,26.60
2008,08,15,11,45,26.60
2008,08,15,11,46,26.60
2008,08,15,11,47,26.70
2008,08,15,11,48,26.60
2008,08,15,11,49,26.60
2008,08,15,11,50,26.60
2008,08,15,11,51,26.60
2008,08,15,11,52,26.50
2008,08,15,11,53,26.50
2008,08,15,11,54,26.60
2008,08,15,11,55,26.60
2008,08,15,11,56,26.60
2008,08,15,11,57,26.60
2008,08,15,11,58,26.50
2008,08,15,11,59,26.40
2008,08,15,12,00,26.40
2008,08,15,12,01,26.30
2008,08,15,12,02,26.30
2008,08,15,12,03,26.30
2008,08,15,12,04,26.40
2008,08,15,12,05,26.40
2008,08,15,12,06,26.40
2008,08,15,12,07,26.40
2008,08,15,12,08,26.40
2008,08,15,12,09,26.40
2008,08,15,12,10,26.40
2008,08,15,12,11,26.30
2008,08,15,12,12,26.30
2008,08,15,12,13,26.30
2008,08,15,12,14,26.40
2008,08,15,12,15,26.40
2008,08,15,12,16,26.50
2008,08,15,12,17,26.60
2008,08,15,12,18,26.60
2008,08,15,12,19,26.80
2008,08,15,12,20,26.80
2008,08,15,12,21,26.90
2008,08,15,12,22,27.00
2008,08,15,12,23,27.10
2008,08,15,12,24,27.10
2008,08,15,12,25,27.20
2008,08,15,12,26,27.20
2008,08,15,12,27,27.20
2008,08,15,12,28,27.20
2008,08,15,12,29,27.20
2008,08,15,12,30,27.10
2008,08,15,12,31,27.00
2008,08,15,12,32,26.90
2008,08,15,12,33,27.00
2008,08,15,12,34,27.10
2008,08,15,12,35,27.10
2008,08,15,12,36,27.10
2008,08,15,12,37,27.10
2008,08,15,12,38,27.00
2008,08,15,12,39,26.90
2008,08,15,12,40,26.70
2008,08,15,12,41,26.60
2008,08,15,12,42,26.40
2008,08,15,12,43,26.40
2008,08,15,12,44,26.30
2008,08,15,12,45,26.30
2008,08,15,12,46,26.40
2008,08,15,12,47,26.40
2008,08,15,12,48,26.50
2008,08,15,12,49,26.60
2008,08,15,12,50,26.60
2008,08,15,12,51,26.60
2008,08,15,12,52,26.60
2008,08,15,12,53,26.40
2008,08,15,12,54,26.40
2008,08,15,12,55,26.40
2008,08,15,12,56,26.40
2008,08,15,12,57,26.40
2008,08,15,12,58,26.40
2008,08,15,12,59,26.40
2008,08,15,13,00,26.40
2008,08,15,13,01,26.50
2008,08,15,13,02,26.60
2008,08,15,13,03,26.80
2008,08,15,13,04,26.90
2008,08,15,13,05,26.90
2008,08,15,13,06,27.00
2008,08,15,13,07,27.10
2008,08,15,13,08,27.10
2008,08,15,13,09,27.10
2008,08,15,13,10,27.10
2008,08,15,13,11,27.10
2008,08,15,13,12,27.00
2008,08,15,13,13,26.90
2008,08,15,13,14,26.90
2008,08,15,13,15,26.80
2008,08,15,13,16,26.80
2008,08,15,13,17,26.70
2008,08,15,13,18,26.70
2008,08,15,13,19,26.70
2008,08,15,13,20,26.60
2008,08,15,13,21,26.60
2008,08,15,13,22,26.60
2008,08,15,13,23,26.60
2008,08,15,13,24,26.60
2008,08,15,13,25,26.30
2008,08,15,13,26,26.00
2008,08,15,13,27,25.90
2008,08,15,13,28,25.80
2008,08,15,13,29,25.70
2008,08,15,13,30,25.60
2008,08,15,13,31,25.50
2008,08,15,13,32,25.40
2008,08,15,13,33,25.20
2008,08,15,13,34,25.20
2008,08,15,13,35,25.00
2008,08,15,13,36,24.90
2008,08,15,13,37,24.80
2008,08,15,13,38,24.80
2008,08,15,13,39,24.80
2008,08,15,13,40,24.80
2008,08,15,13,41,24.80
2008,08,15,13,42,24.80
2008,08,15,13,43,24.80
2008,08,15,13,44,24.80
2008,08,15,13,45,24.80
2008,08,15,13,46,24.90
2008,08,15,13,47,24.90
2008,08,15,13,48,25.00
2008,08,15,13,49,25.10
2008,08,15,13,50,25.20
2008,08,15,13,51,25.30
2008,08,15,13,52,25.40
2008,08,15,13,53,25.50
2008,08,15,13,54,25.60
2008,08,15,13,55,25.60
2008,08,15,13,56,25.70
2008,08,15,13,57,25.70
2008,08,15,13,58,25.70
2008,08,15,13,59,25.70
2008,08,15,14,00,25.70
2008,08,15,14,01,25.70
2008,08,15,14,02,25.80
2008,08,15,14,03,25.80
2008,08,15,14,04,25.90
2008,08,15,14,05,25.90
2008,08,15,14,06,26.00
2008,08,15,14,07,26.00
2008,08,15,14,08,26.10
2008,08,15,14,09,26.20
2008,08,15,14,10,26.30
2008,08,15,14,11,26.30
2008,08,15,14,12,26.40
2008,08,15,14,13,26.40
2008,08,15,14,14,26.50
2008,08,15,14,15,26.60
2008,08,15,14,16,26.60
2008,08,15,14,17,26.60
2008,08,15,14,18,26.60
2008,08,15,14,19,26.60
2008,08,15,14,20,26.60
2008,08,15,14,21,26.60
2008,08,15,14,22,26.60
2008,08,15,14,23,26.60
2008,08,15,14,24,26.60
2008,08,15,14,25,26.50
2008,08,15,14,26,26.40
2008,08,15,14,27,26.40
2008,08,15,14,28,26.40
2008,08,15,14,29,26.40
2008,08,15,14,30,26.30
2008,08,15,14,31,26.30
2008,08,15,14,32,26.30
2008,08,15,14,33,26.30
2008,08,15,14,34,26.30
2008,08,15,14,35,26.40
2008,08,15,14,36,26.40
2008,08,15,14,37,26.40
2008,08,15,14,38,26.50
2008,08,15,14,39,26.50
2008,08,15,14,40,26.40
2008,08,15,14,41,26.50
2008,08,15,14,42,26.50
2008,08,15,14,43,26.40
2008,08,15,14,44,26.30
2008,08,15,14,45,26.30
2008,08,15,14,46,26.30
2008,08,15,14,47,26.30
2008,08,15,14,48,26.30
2008,08,15,14,49,26.30
2008,08,15,14,50,26.20
2008,08,15,14,51,26.10
2008,08,15,14,52,26.10
2008,08,15,14,53,26.00
2008,08,15,14,54,25.90
2008,08,15,14,55,25.70
2008,08,15,14,56,25.60
2008,08,15,14,57,25.50
2008,08,15,14,58,25.40
2008,08,15,14,59,25.30
2008,08,15,15,00,25.20
2008,08,15,15,01,25.10
2008,08,15,15,02,25.10
2008,08,15,15,03,25.00
2008,08,15,15,04,25.00
2008,08,15,15,05,25.00
2008,08,15,15,06,25.00
2008,08,15,15,07,25.00
2008,08,15,15,08,25.00
2008,08,15,15,09,24.90
2008,08,15,15,10,24.80
2008,08,15,15,11,24.80
2008,08,15,15,12,24.70
2008,08,15,15,13,24.60
2008,08,15,15,14,24.50
2008,08,15,15,15,24.50
2008,08,15,15,16,24.50
2008,08,15,15,17,24.40
2008,08,15,15,18,24.40
2008,08,15,15,19,24.30
2008,08,15,15,20,24.30
2008,08,15,15,21,24.30
2008,08,15,15,22,24.30
2008,08,15,15,23,24.30
2008,08,15,15,24,24.30
2008,08,15,15,25,24.30
2008,08,15,15,26,24.40
2008,08,15,15,27,24.40
2008,08,15,15,28,24.50
2008,08,15,15,29,24.50
2008,08,15,15,30,24.60
2008,08,15,15,31,24.70
2008,08,15,15,32,24.70
2008,08,15,15,33,24.70
2008,08,15,15,34,24.70
2008,08,15,15,35,24.80
2008,08,15,15,36,24.80
2008,08,15,15,37,24.80
2008,08,15,15,38,24.80
2008,08,15,15,39,24.80
2008,08,15,15,40,24.90
2008,08,15,15,41,24.90
2008,08,15,15,42,25.00
2008,08,15,15,43,25.10
2008,08,15,15,44,25.20
2008,08,15,15,45,25.20
2008,08,15,15,46,25.20
2008,08,15,15,47,25.30
2008,08,15,15,48,25.30
2008,08,15,15,49,25.40
2008,08,15,15,50,25.50
2008,08,15,15,51,25.60
2008,08,15,15,52,25.60
2008,08,15,15,53,25.50
2008,08,15,15,54,25.50
2008,08,15,15,55,25.50
2008,08,15,15,56,25.40
2008,08,15,15,57,25.40
2008,08,15,15,58,25.30
2008,08,15,15,59,25.30
2008,08,15,16,00,25.20
2008,08,15,16,01,25.20
2008,08,15,16,02,25.20
2008,08,15,16,03,25.20
2008,08,15,16,04,25.20
2008,08,15,16,05,25.30
2008,08,15,16,06,25.30
2008,08,15,16,07,25.30
2008,08,15,16,08,25.40
2008,08,15,16,09,25.40
2008,08,15,16,10,25.40
2008,08,15,16,11,25.50
2008,08,15,16,12,25.50
2008,08,15,16,13,25.50
2008,08,15,16,14,25.60
2008,08,15,16,15,25.60
2008,08,15,16,16,25.60
2008,08,15,16,17,25.70
2008,08,15,16,18,25.70
2008,08,15,16,19,25.80
2008,08,15,16,20,25.90
2008,08,15,16,21,25.90
2008,08,15,16,22,26.00
2008,08,15,16,23,26.20
2008,08,15,16,24,26.30
2008,08,15,16,25,26.40
2008,08,15,16,26,26.50
2008,08,15,16,27,26.60
2008,08,15,16,28,26.70
2008,08,15,16,29,26.80
2008,08,15,16,30,26.80
2008,08,15,16,31,26.90
2008,08,15,16,32,27.00
2008,08,15,16,33,27.10
2008,08,15,16,34,27.10
2008,08,15,16,35,27.10
2008,08,15,16,36,27.10
2008,08,15,16,37,27.10
2008,08,15,16,38,27.10
2008,08,15,16,39,27.00
2008,08,15,16,40,26.90
2008,08,15,16,41,26.90
2008,08,15,16,42,26.80
2008,08,15,16,43,26.90
2008,08,15,16,44,26.90
2008,08,15,16,45,26.90
2008,08,15,16,46,26.80
2008,08,15,16,47,26.90
2008,08,15,16,48,27.00
2008,08,15,16,49,27.10
2008,08,15,16,50,27.20
2008,08,15,16,51,27.30
2008,08,15,16,52,27.40
2008,08,15,16,53,27.60
2008,08,15,16,54,27.70
2008,08,15,16,55,27.70
2008,08,15,16,56,27.70
2008,08,15,16,57,27.70
2008,08,15,16,58,27.70
2008,08,15,16,59,27.70
2008,08,15,17,00,27.80
2008,08,15,17,01,27.80
2008,08,15,17,02,27.80
2008,08,15,17,03,27.70
2008,08,15,17,04,27.70
2008,08,15,17,05,27.70
2008,08,15,17,06,27.70
2008,08,15,17,07,27.70
2008,08,15,17,08,27.70
2008,08,15,17,09,27.70
2008,08,15,17,10,27.70
2008,08,15,17,11,27.70
2008,08,15,17,12,27.60
2008,08,15,17,13,27.40
2008,08,15,17,14,27.20
2008,08,15,17,15,26.80
2008,08,15,17,16,26.50
2008,08,15,17,17,26.10
2008,08,15,17,18,25.90
2008,08,15,17,19,25.90